Location: Wangen+im+Allg�u
(47.7098°N, 9.8383°E)
Time: 22:54:11
(UTC+02:00)

ISS - Visible Passes

Search period start: 25 September 2020 00:00
Search period end: 05 October 2020 00:00
Orbit: 419 x 420 km, 51.6° (Epoch: 26 September)

Date Brightness Start Highest point End Pass type
(mag) Time Alt. Az. Time Alt. Az. Time Alt. Az.
25 Sep -2.8 20:58:13 10° WNW 21:01:27 40° N 21:02:09 35° NNE visible
26 Sep -2.8 20:10:43 10° WNW 20:13:57 42° N 20:16:31 15° ENE visible
26 Sep -1.5 21:47:50 10° WNW 21:49:28 25° NW 21:49:28 25° NW visible
27 Sep -3.1 21:00:24 10° WNW 21:03:41 46° N 21:03:50 45° NNE visible
28 Sep -2.9 20:12:56 10° WNW 20:16:10 41° N 20:18:11 19° ENE visible
28 Sep -1.2 21:49:49 10° WNW 21:51:09 22° WNW 21:51:09 22° WNW visible
29 Sep -3.5 21:02:24 10° WNW 21:05:30 64° NNW 21:05:30 64° NNW visible
30 Sep -3.4 20:14:58 10° WNW 20:18:18 54° NNE 20:19:53 27° E visible
30 Sep -0.9 21:51:53 10° WNW 21:52:51 17° W 21:52:51 17° W visible
01 Oct -3.1 19:27:30 10° WNW 19:30:47 46° N 19:34:04 10° E visible
01 Oct -3.1 21:04:22 10° WNW 21:07:15 54° WSW 21:07:15 54° WSW visible
02 Oct -3.8 20:16:53 10° WNW 20:20:17 87° SSW 20:21:42 32° ESE visible
02 Oct -0.5 21:54:21 10° W 21:54:40 11° W 21:54:40 11° W visible
03 Oct -3.7 19:29:26 10° WNW 19:32:48 69° NNE 19:36:10 10° ESE visible
03 Oct -2.0 21:06:31 10° W 21:09:10 26° SW 21:09:10 26° SW visible
04 Oct -2.7 20:18:52 10° WNW 20:22:03 40° SW 20:23:45 22° SSE visible
